METAR Formatted Surface Weather Observation
Issued by NWS

Home | Current Version | Previous Version | Text Only | Print | Product List | Glossary On
Versions: 1 2 3 4 5 6 7 8 9 10 11 12 13 14 15 16 17 18
000
SAUS41 KGYX 250756
MTRNKT
METAR KNKT 250754Z 04011KT 10SM -RA OVC055 18/16 A2955 RMK AO2
SLP003 P0019 T01780161



USA.gov is the U.S. government's official web portal to all federal, state and local government web resources and services.